Tracking 31027 objects as of 19-Jul-2025
HD Live streaming from Space Station
objects crossing your sky now

OBJECT AC

Track OBJECT AC now!
10-day predictions


NORAD ID: 61761
Int'l Code: 2024-199AC
Perigee: 459.3 km
Apogee: 473.5 km
Inclination: 97.3 °
Period: 93.8 minutes
Semi major axis: 6837 km
RCS: Unknown
Launch date: November 4, 2024
Source: (TBD)
Launch site: VOSTOCHNY COSMODROME (VOSTO)
Your satellite tracking list
KORSAT 7
Track 1 satellite(s)




NASA's NSSDC Master Catalog

Two Line Element Set (TLE):
1 61761U 24199AC  25199.89336406  .00013962  00000-0  40543-3 0  9991
2 61761  97.3486  68.6924 0010414  57.0205 303.2039 15.35552222 86145
Source of the keplerian elements: AFSPC